Location: Unspecified
(41.4229°N, 0.0000°E)
Time: 03:10:42
(UTC+00:00)

Explorer 7 - Visible Passes

Search period start: 04 April 2026 00:00
Search period end: 14 April 2026 00:00
Orbit: 429 x 539 km, 50.2° (Epoch: 29 March)

Date Brightness Start Highest point End Pass type
(mag) Time Alt. Az. Time Alt. Az. Time Alt. Az.
4 Apr 9.2 03:24:55 11° SE 03:24:55 11° SE 03:25:05 10° SE visible
4 Apr 8.1 20:15:27 10° SSW 20:17:34 26° S 20:17:34 26° S visible
5 Apr 7.2 19:48:25 10° SSW 19:52:11 38° SE 19:53:12 32° ESE visible
5 Apr 9.4 21:26:42 10° W 21:27:35 16° W 21:27:35 16° W visible
6 Apr 7.4 19:21:23 10° SSW 19:25:06 35° SE 19:28:30 11° ENE visible
6 Apr 7.9 20:59:32 10° W 21:02:51 42° NW 21:02:51 42° NW visible
7 Apr 7.5 18:54:18 10° SSW 18:57:59 33° SE 19:01:36 10° ENE visible
7 Apr 7.6 20:32:21 10° WSW 20:36:16 48° NNW 20:37:45 31° NNE visible
8 Apr 7.5 20:05:08 10° WSW 20:09:05 51° NNW 20:12:21 14° NE visible
8 Apr 9.4 21:44:51 10° WNW 21:46:39 19° NW 21:46:39 19° NW visible
9 Apr 7.5 19:37:53 10° WSW 19:41:53 54° NNW 19:45:47 10° NE visible
9 Apr 8.8 21:17:35 10° WNW 21:20:51 23° N 21:20:59 23° N visible
10 Apr 7.4 19:10:37 10° WSW 19:14:38 57° NNW 19:18:35 10° NE visible
10 Apr 8.8 20:50:17 10° WNW 20:53:36 24° N 20:55:07 19° NNE visible
11 Apr 8.8 20:22:57 10° WNW 20:26:18 24° N 20:29:08 12° NE visible
11 Apr 9.6 22:02:14 10° NW 22:03:23 16° NW 22:03:23 16° NW visible
12 Apr 8.7 19:55:35 10° WNW 19:58:58 25° N 20:02:19 10° NE visible
12 Apr 9.0 21:34:54 10° NW 21:37:17 22° NNW 21:37:17 22° NNW visible
13 Apr 8.7 19:28:12 10° WNW 19:31:38 25° N 19:35:00 10° NE visible
13 Apr 8.5 21:07:33 10° NW 21:10:53 24° N 21:11:05 24° NNE visible
